Patuxent River, MD

1:15 PM EDT on July 28, 2017 (GMT -0400)
Patuxent River Naval Air Station

Weather History for KNHK - March, 2013

Change the Weather History Date:

Tuesday, March 12, 2013

  Actual Average Record
Temperature  
Mean Temperature 53 °F -  
Max Temperature 62 °F 53 °F 79 °F (2006)
Min Temperature 44 °F 36 °F 21 °F (1998)
Degree Days  
Heating Degree Days 12    
Growing Degree Days 3 (Base 50)    
Moisture  
Dew Point 47 °F    
Average Humidity 81    
Maximum Humidity 93    
Minimum Humidity 60    
Precipitation  
Precipitation 0.63 in - - ()
Sea Level Pressure  
Sea Level Pressure 29.82 in    
Wind  
Wind Speed 12 mph (SSE)    
Max Wind Speed 24 mph    
Max Gust Speed 47 mph    
Visibility 7 miles    
Events Rain    
Averages and records for this station are not official NWS values.
T = Trace of Precipitation, MM = Missing Value Source: NWS Daily Summary

Daily Weather History Graph

Daily Weather History Graph

Search for Another Location

Airport or City:

Trip Planner

Search our weather history database for the weather conditions in past years. The results will help you decide how hot, cold, wet, or windy it might be!

Date:

Astronomy

Mar. 12, 2013 Rise Set
Actual Time 7:21 AM EDT 7:10 PM EDT
Civil Twilight 6:54 AM EDT 7:36 PM EDT
Nautical Twilight 6:24 AM EDT 8:07 PM EDT
Astronomical Twilight 5:53 AM EDT 8:38 PM EDT
Moon 7:27 AM EDT (3/12) 8:21 PM EDT (3/12)
Length of Visible Light 12h 41m
Length of Day
11h 49m
New Moon, 1% of the Moon is Illuminated
Mar 12
New Moon
Mar 19
First Quarter
Mar 27
Full
Apr 3
Last Quarter
Apr 10
New

Hourly Weather History & Observations

Time (EDT) Temp. Windchill Dew Point Humidity Pressure Visibility Wind Dir Wind Speed Gust Speed Precip Events Conditions
12:52 AM 50.0 °F - 43.0 °F 77% 29.99 in 10.0 mi ESE 11.5 mph - N/A   Clear
1:52 AM 51.1 °F - 44.1 °F 77% 29.96 in 10.0 mi South 24.2 mph 47.2 mph N/A   Overcast
2:52 AM 51.1 °F - 44.1 °F 77% 29.93 in 10.0 mi ESE 10.4 mph - N/A   Overcast
3:52 AM 51.1 °F - 45.0 °F 80% 29.91 in 10.0 mi ESE 9.2 mph - 0.00 in   Mostly Cloudy
4:52 AM 50.0 °F - 44.1 °F 80% 29.89 in 10.0 mi ESE 8.1 mph - N/A   Mostly Cloudy
5:11 AM 50.0 °F - 44.6 °F 82% 29.88 in 10.0 mi ESE 8.1 mph 18.4 mph 0.00 in Rain Light Rain
5:52 AM 53.1 °F - 48.9 °F 86% 29.88 in 6.0 mi ESE 5.8 mph 17.3 mph 0.04 in Rain Light Rain
6:52 AM 50.0 °F - 46.9 °F 89% 29.86 in 5.0 mi ESE 9.2 mph - 0.06 in Rain Light Rain
7:52 AM 50.0 °F - 46.9 °F 89% 29.83 in 5.0 mi ESE 18.4 mph - 0.06 in Rain Light Rain
8:52 AM 53.1 °F - 50.0 °F 89% 29.83 in 6.0 mi SE 8.1 mph - 0.02 in Rain Light Rain
9:11 AM 51.8 °F - 48.2 °F 88% 29.81 in 6.0 mi SE 12.7 mph - 0.00 in   Overcast
9:37 AM 51.8 °F - 48.2 °F 88% 29.80 in 6.0 mi SE 9.2 mph 21.9 mph 0.00 in Rain Light Rain
9:52 AM 55.9 °F - 52.0 °F 87% 29.80 in 6.0 mi SSE 15.0 mph 20.7 mph 0.00 in Rain Light Rain
10:52 AM 57.0 °F - 54.0 °F 89% 29.77 in 5.0 mi SSE 21.9 mph 33.4 mph 0.02 in Rain Light Rain
11:45 AM 57.2 °F - 53.6 °F 88% 29.75 in 1.0 mi SSE 16.1 mph 31.1 mph 0.08 in Rain Rain
11:52 AM 57.0 °F - 55.0 °F 93% 29.75 in 1.0 mi SSE 15.0 mph 32.2 mph 0.11 in Rain Rain
12:27 PM 57.2 °F - 53.6 °F 88% 29.74 in 5.0 mi SSE 9.2 mph 17.3 mph 0.06 in Rain Light Rain
12:52 PM 57.9 °F - 54.0 °F 87% 29.74 in 3.0 mi SSW 11.5 mph 17.3 mph 0.09 in Rain Light Rain
1:15 PM 59.0 °F - 55.4 °F 88% 29.73 in 7.0 mi South 10.4 mph 20.7 mph 0.02 in   Overcast
1:52 PM 61.0 °F - 57.0 °F 87% 29.73 in 8.0 mi South 6.9 mph 18.4 mph 0.02 in   Overcast
2:02 PM 60.8 °F - 57.2 °F 88% 29.74 in 4.0 mi West 10.4 mph 16.1 mph 0.00 in Rain Rain
2:29 PM 53.6 °F - 50.0 °F 88% 29.76 in 3.0 mi WNW 19.6 mph 24.2 mph 0.07 in Rain Rain
2:52 PM 52.0 °F - 48.9 °F 89% 29.76 in 3.0 mi WNW 13.8 mph - 0.15 in Rain Light Rain
3:52 PM 53.1 °F - 50.0 °F 89% 29.76 in 6.0 mi WNW 4.6 mph - 0.04 in Rain Light Rain
4:30 PM 55.4 °F - 51.8 °F 88% 29.75 in 10.0 mi NW 5.8 mph - 0.02 in   Mostly Cloudy
4:52 PM 55.9 °F - 51.1 °F 84% 29.76 in 10.0 mi NW 4.6 mph - 0.02 in   Mostly Cloudy
5:52 PM 55.0 °F - 46.0 °F 72% 29.78 in 10.0 mi WNW 16.1 mph - N/A   Mostly Cloudy
6:52 PM 54.0 °F - 43.0 °F 66% 29.81 in 10.0 mi WNW 11.5 mph - N/A   Partly Cloudy
7:52 PM 52.0 °F - 41.0 °F 66% 29.84 in 10.0 mi NNW 10.4 mph - N/A   Partly Cloudy
8:52 PM 48.9 °F - 37.9 °F 66% 29.88 in 10.0 mi NNW 12.7 mph - N/A   Partly Cloudy
9:52 PM 46.9 °F - 34.0 °F 61% 29.91 in 10.0 mi NW 11.5 mph - N/A   Clear
10:52 PM 45.0 °F 39.3 °F 33.1 °F 63% 29.93 in 10.0 mi NNW 11.5 mph - N/A   Clear
11:52 PM 44.1 °F 38.1 °F 30.9 °F 60% 29.94 in 10.0 mi NW 11.5 mph - N/A   Clear